Location: Unspecified
(47.9110°N, 14.3980°E)
Time: 16:38:20
(UTC+00:00)

Cosmos 2016 Rocket - Pass Details

Date: 06 August 2020
Orbit: 946 x 1001 km, 83.0° (Epoch: 18 September)

Event Time Altitude Azimuth Distance (km) Brightness Sun altitude
Exits shadow 21:50:50 49° 149° (SSE) 1,268 4.1 -23.4°
Maximum altitude 21:52:25 64° 94° (E) 1,093 4.1 -23.5°
Drops below altitude 10° 21:58:44 10° 14° (NNE) 2,780 7.1 -23.9°
Sets 22:01:17 0° 12° (NNE) 3,736 8.0 -24.0°
